Location: Rotheul
(50.2849°N, 11.2349°E)
Time: 09:56:20
(UTC+02:00)

ISS - Pass Details

Date: 16 July 2018
Orbit: 402 x 408 km, 51.6° (Epoch: 19 July)

Event Time Altitude Azimuth Distance (km) Brightness Sun altitude
Rises 04:05:30 0° 282° (WNW) 2,331 -0.2 -9.7°
Reaches altitude 10° 04:07:35 10° 284° (WNW) 1,471 -1.2 -9.5°
Maximum altitude 04:10:53 78° 11° (N) 422 -3.7 -9.1°
Drops below altitude 10° 04:14:11 10° 98° (E) 1,470 -0.5 -8.8°
Sets 04:16:17 0° 100° (E) 2,331 0.5 -8.6°
